This demonstration page uses our WeatherBlox Daily Observations layout. Learn more.

Left ArrowRight Arrow

39.08367, -84.50855

Hourly Observations for July 7, 2015

Temp ( °F °C ) Dew Point ( °F °C ) Humidity (%) Winds ( mph kmh ) Pressure ( in mb ) Visibility ( mi km ) Precip ( " mm )
12:53 am 00:53 Clear 73 22.8 69 20.6 87 87 SSW 6 9 29.99 1016 10 16 0.00 0.00
1:53 am 01:53 Clear 71 21.7 68 20 90 90 SSW 7 11 29.98 1015 10 16 0.00 0.00
2:53 am 02:53 Clear 71 21.7 68 20 90 90 S 3 6 29.98 1015 10 16 0.00 0.00
3:53 am 03:53 Mostly Cloudy 72 22.2 69 20.6 91 91 SSW 5 7 29.98 1015 10 16 0.00 0.00
4:53 am 04:53 Mostly Cloudy 72 22.2 69 20.6 91 91 SSW 6 9 29.97 1015 10 16 0.00 0.00
5:53 am 05:53 Cloudy 72 22.2 70 21.1 94 94 S 3 6 29.98 1015 10 16 0.08 2.03
6:05 am 06:05 Mostly Cloudy 71 21.7 70 21.1 96 96 SSW 5 7 29.97 1015 10 16 0.00 0.00
6:53 am 06:53 Mostly Sunny 71 21.7 70 21.1 96 96 Calm 29.98 1015 9 14 0.00 0.00
7:37 am 07:37 Mostly Cloudy 73 22.8 71 21.7 94 94 Calm 29.97 1015 8 13 0.00 0.00
7:53 am 07:53 Mostly Cloudy 73 22.8 71 21.7 94 94 S 5 7 29.98 1015 10 16 0.00 0.00
8:38 am 08:38 Cloudy 75 24 72 22 89 89 SSW 8 13 29.97 1015 10 16 0.00 0.00
8:53 am 08:53 Cloudy 76 24.4 72 22.2 88 88 SSW 9 15 29.98 1015 10 16 0.00 0.00
9:53 am 09:53 Cloudy 77 25 72 22.2 85 85 SSW 9 15 29.97 1015 10 16 0.00 0.00
10:53 am 10:53 Cloudy 78 25.6 72 22.2 82 82 SSW 9 15 29.97 1015 10 16 0.00 0.00
11:53 am 11:53 Cloudy 80 26.7 73 22.8 79 79 S 9 15 29.96 1015 10 16 0.00 0.00
12:04 pm 12:04 Cloudy 81 27 73 23 79 79 SSW 13 20 29.94 1014 10 16 0.00 0.00
12:53 pm 12:53 Mostly Cloudy 82 27.8 72 22.2 72 72 SW 18 30 29.93 1014 N/A 0.00 0.00
1:53 pm 13:53 Cloudy 80 26.7 71 21.7 74 74 SW 13 20 29.94 1014 10 16 0.00 0.00
2:26 pm 14:26 Mostly Cloudy 81 27 72 22 74 74 SW 12 19 29.91 1013 10 16 0.00 0.00
2:53 pm 14:53 Cloudy 80 26.7 71 21.7 74 74 SW 12 19 29.93 1013 10 16 0.00 0.00
3:23 pm 15:23 Cloudy 79 26.1 70 21.1 74 74 SW 14 22 29.91 1013 10 16 0.00 0.00
3:53 pm 15:53 Cloudy 80 26.7 71 21.7 74 74 SW 16 26 29.93 1014 10 16 0.00 0.00
4:16 pm 16:16 Cloudy with Light Rain 77 25 72 22 83 83 SSW 15 24 29.94 1014 5 8 0.00 0.00
4:53 pm 16:53 Cloudy 76 24.4 73 22.8 91 91 SSW 10 17 29.94 1014 10 16 0.01 0.25
5:53 pm 17:53 Cloudy with Light Rain 77 25 72 22.2 85 85 SW 17 28 29.94 1014 8 13 0.00 0.03
6:53 pm 18:53 Cloudy with Light Rain 75 23.9 72 22.2 90 90 SW 8 13 29.95 1014 8 13 0.01 0.25
7:03 pm 19:03 Cloudy with Light Rain 75 24 72 22 89 89 WSW 10 17 29.94 1014 7 11 0.00 0.00
7:39 pm 19:39 Cloudy with Light Rain 74 23.3 70 21.1 88 88 SW 12 19 29.94 1014 10 16 0.11 2.79
7:53 pm 19:53 Cloudy with Light Rain 74 23.3 70 21.1 88 88 SW 12 19 29.95 1014 4 6 0.12 3.05
8:53 pm 20:53 Cloudy with Light Rain 73 22.8 71 21.7 94 94 SSW 13 20 29.94 1014 10 16 0.03 0.76
9:53 pm 21:53 Cloudy 73 22.8 71 21.7 94 94 WSW 7 11 29.97 1015 10 16 0.00 0.03
10:11 pm 22:11 Cloudy with Light Rain 73 22.8 71 21.7 94 94 W 7 11 29.97 1015 10 16 0.00 0.03
10:27 pm 22:27 Cloudy 73 22.8 71 21.7 94 94 SW 9 15 29.97 1015 10 16 0.00 0.03
10:44 pm 22:44 Cloudy with Light Rain 72 22 70 21 94 94 NW 8 13 29.97 1015 10 16 0.00 0.00
10:53 pm 22:53 Cloudy 72 22.2 69 20.6 91 91 NW 7 11 30.00 1016 10 16 0.00 0.03
11:53 pm 23:53 Cloudy 70 21.1 68 20 93 93 WNW 7 11 30.01 1016 10 16 0.00 0.00

Powered by AerisWeather